Location: *
(11.7485°N, 79.7483°E)
Time: 02:51:38
(UTC+00:00)

Cosmos 1892 Rocket - Pass Details

Date: 22 January 2021
Orbit: 607 x 632 km, 82.5° (Epoch: 05 March)

Event Time Altitude Azimuth Distance (km) Brightness Sun altitude
Rises 00:11:27 0° 350° (N) 2,875 6.7 -13.5°
Reaches altitude 10° 00:13:40 10° 347° (NNW) 1,975 5.8 -13.0°
Maximum altitude 00:18:00 62° 267° (W) 695 3.5 -11.9°
Drops below altitude 10° 00:22:21 10° 186° (S) 1,990 6.3 -10.9°
Sets 00:24:36 0° 183° (S) 2,900 7.2 -10.4°
